Regional Weather Roundup
Issued by NWS Charleston, WV

Home | Current Version | Previous Version | Text Only | Print | Product List | Glossary Off
Versions: 1 2 3 4 5 6 7 8 9 10 11 12 13 14 15 16 17 18 19 20 21 22 23 24 25 26 27 28 29 30 31 32 33 34 35 36 37 38 39 40 41 42 43 44 45 46 47 48 49 50

000
ASUS41 KRLX 271810
RWRRLX
West Virginia Regional Weather Roundup
National Weather Service Charleston WV
100 PM EST FRI FEB 27 2015

Note: "fair" indicates few or no clouds below 12,000 feet with no
significant weather and/or obstructions to visibility.

WVZ003-271900-
Northern Panhandle of West Virginia

CITY           SKY/WX    TMP DP  RH WIND       PRES   REMARKS
WHEELING       SUNNY     15  -4  42 VRB6      30.50S WCI   6
$$

WVZ009-271900-
Northwest West Virginia

CITY           SKY/WX    TMP DP  RH WIND       PRES   REMARKS
PARKERSBURG    PTSUNNY   18   2  49 NW8       30.59S WCI   8
$$

WVZ006-271900-
Western West Virginia

CITY           SKY/WX    TMP DP  RH WIND       PRES   REMARKS
HUNTINGTON     CLOUDY    19   6  57 NW6       30.57R
$$

WVZ015-271900-
West Central West Virginia

CITY           SKY/WX    TMP DP  RH WIND       PRES   REMARKS
CHARLESTON     PTSUNNY   21   6  52 NW6       30.54R
$$

WVZ022-031-271900-
North Central West Virginia

CITY           SKY/WX    TMP DP  RH WIND       PRES   REMARKS
CLARKSBURG     PTSUNNY   21   4  47 VRB6      30.48S
MORGANTOWN       N/A    N/A N/A N/A W7        30.49R
$$

WVZ025-035-042-045-271900-
Southern West Virginia

CITY           SKY/WX    TMP DP  RH WIND       PRES   REMARKS
BECKLEY        CLOUDY    19   7  59 N8        30.37R WCI   9
LOGAN          CLOUDY    18   9  68 CALM      30.45R
BLUEFIELD      CLOUDY    21  10  62 NW12      30.34S WCI   9
LEWISBURG      SUNNY     26   9  47 NW6G16    30.36S
$$

WVZ047-271900-
Northern Mountains of West Virginia

CITY           SKY/WX    TMP DP  RH WIND       PRES   REMARKS
ELKINS         MOSUNNY   18   7  62 W9        30.40R WCI   7
$$

WVZ052-271900-
Eastern Panhandle of West Virginia

CITY           SKY/WX    TMP DP  RH WIND       PRES   REMARKS
MARTINSBURG    SUNNY     28   7  41 VRB5      30.44F
PETERSBURG     MOSUNNY   29   7  40 W14       30.43S
$$


USA.gov is the U.S. government's official web portal to all federal, state and local government web resources and services.